Date,TemperatureHighF,TemperatureAvgF,TemperatureLowF,DewpointHighF,DewpointAvgF,DewpointLowF,HumidityHigh,HumidityAvg,HumidityLow,PressureMaxIn,PressureMinIn,WindSpeedMaxMPH,WindSpeedAvgMPH,GustSpeedMaxMPH,PrecipitationSumIn
2013-10-1,79.6,66.6,55.0,64.0,60.0,54.0,98,81,55,30.13,30.02,5,1,9,0.00
2013-10-2,82.1,68.0,55.7,67.0,60.9,54.0,98,80,49,30.14,30.04,4,1,9,0.00
2013-10-3,81.9,69.2,59.0,66.0,62.5,58.0,97,81,51,30.11,30.03,6,1,10,0.00
2013-10-4,84.1,69.8,58.1,68.0,63.2,57.0,98,81,53,30.13,30.05,5,1,10,0.00
2013-10-5,84.8,71.3,60.2,69.0,64.3,59.0,98,81,52,30.11,29.99,5,1,8,0.00
2013-10-6,80.8,69.8,60.3,68.0,63.8,59.0,97,83,60,30.01,29.85,9,2,13,0.00
2013-10-7,74.1,66.0,57.0,67.0,61.6,52.0,99,86,67,29.98,29.77,7,1,10,0.03
2013-10-8,70.4,59.8,52.4,55.0,51.0,48.0,91,74,52,30.20,29.98,8,1,12,0.03
2013-10-9,74.8,59.8,48.3,52.0,47.1,43.0,89,66,35,30.24,30.09,8,1,13,0.00
2013-10-10,80.0,61.4,44.6,58.0,51.6,43.0,96,73,42,30.13,29.98,4,1,11,0.00
2013-10-11,81.4,65.9,51.7,60.0,54.8,50.0,96,71,40,30.00,29.90,7,1,12,0.00
2013-10-12,74.1,64.1,53.8,63.0,58.1,52.0,94,81,61,30.07,29.95,4,0,8,0.00
2013-10-13,75.7,66.5,61.9,65.0,63.0,61.0,97,89,66,30.19,30.07,5,0,9,0.01
2013-10-14,70.9,64.6,60.5,62.0,60.8,59.0,94,87,73,30.22,30.13,6,1,9,0.01
2013-10-15,70.0,61.5,54.8,60.0,57.1,53.0,95,86,67,30.18,30.04,5,1,8,0.00
2013-10-16,70.9,61.7,52.0,61.0,57.3,51.0,98,86,68,30.07,29.94,7,1,9,0.00
2013-10-17,68.3,62.4,59.3,65.0,61.1,59.0,99,95,86,29.95,29.82,9,1,12,0.05
2013-10-18,69.8,60.2,51.3,60.0,55.2,49.0,99,85,58,30.02,29.88,6,1,9,0.06
2013-10-19,63.1,58.9,52.4,60.0,57.1,49.0,99,94,86,29.96,29.82,6,1,7,0.01
2013-10-20,66.5,54.4,43.7,49.0,45.4,40.0,92,74,48,30.09,29.92,6,1,9,0.00
2013-10-21,66.6,55.0,44.7,54.0,49.3,43.0,94,82,61,30.15,29.99,8,2,12,0.00
2013-10-22,68.6,57.9,51.9,57.0,53.9,51.0,98,87,65,30.00,29.79,5,1,9,0.02
2013-10-23,60.2,51.1,36.8,52.0,40.0,31.0,97,69,41,30.03,29.73,16,3,23,0.02
2013-10-24,59.6,45.2,31.4,39.0,34.9,30.0,94,70,46,30.18,30.04,7,2,12,0.00
2013-10-25,52.5,43.8,33.2,36.0,29.9,26.0,84,60,40,30.39,30.17,8,2,15,0.00
2013-10-26,56.5,41.7,27.1,38.0,32.2,25.0,93,72,44,30.38,30.09,10,2,15,0.00
2013-10-27,68.8,53.0,38.9,52.0,44.8,37.0,95,76,51,30.14,30.04,9,2,11,0.00
2013-10-28,67.5,56.8,47.9,57.0,52.5,46.0,96,86,62,30.24,30.10,3,0,9,0.01
2013-10-29,73.4,60.6,51.1,56.0,53.2,50.0,97,79,48,30.32,30.21,6,1,8,0.01
2013-10-30,76.7,62.6,53.1,60.0,55.7,51.0,95,80,53,30.26,30.13,6,1,10,0.00
2013-10-31,65.9,60.0,54.4,61.0,57.0,53.0,97,90,75,30.16,29.86,8,1,11,0.00